Total_Precipitation_Accumulation
0.02 0.00 0.00 0.01 0.01 0.03 0.06 0.11 0.06 0.09 0.10 0.05 0.03 0.04 0.08 0.18 0.31 0.33 0.20 0.20 0.11 0.08 0.08 0.09 0.09 0.09 0.09 0.07 0.05 0.06 0.04 0.03 0.03 0.03 0.02 0.03 0.03 0.03 0.03 0.03 0.05 0.05 0.05
0.01 0.01 0.01 0.02 0.01 0.02 0.03 0.08 0.06 0.11 0.12 0.12 0.04 0.05 0.07 0.12 0.26 0.26 0.17 0.21 0.12 0.05 0.05 0.07 0.09 0.10 0.08 0.06 0.05 0.05 0.02 0.02 0.03 0.02 0.02 0.02 0.03 0.03 0.03 0.03 0.03 0.03 0.02
0.07 0.09 0.08 0.08 0.08 0.08 0.09 0.09 0.09 0.11 0.11 0.13 0.10 0.10 0.10 0.09 0.11 0.12 0.10 0.10 0.10 0.07 0.05 0.04 0.07 0.09 0.07 0.07 0.05 0.05 0.03 0.02 0.01 0.02 0.02 0.01 0.01 0.01 0.01 0.01 0.02 0.02 0.02
0.23 0.30 0.25 0.20 0.24 0.22 0.21 0.24 0.21 0.20 0.24 0.24 0.22 0.19 0.16 0.13 0.09 0.08 0.07 0.06 0.07 0.06 0.08 0.08 0.06 0.07 0.08 0.09 0.08 0.09 0.07 0.03 0.02 0.01 0.01 0.01 0.01 0.00 0.00 0.00 0.00 0.01 0.01
0.46 0.56 0.50 0.52 0.55 0.43 0.35 0.32 0.33 0.45 0.43 0.43 0.37 0.29 0.21 0.14 0.09 0.08 0.07 0.05 0.06 0.11 0.16 0.14 0.08 0.07 0.12 0.16 0.15 0.17 0.15 0.09 0.03 0.02 0.02 0.02 0.01 0.01 0.00 0.00 0.00 0.00 0.00
0.51 0.63 0.58 0.61 0.64 0.57 0.49 0.48 0.50 0.53 0.47 0.49 0.36 0.24 0.19 0.12 0.09 0.08 0.07 0.06 0.04 0.04 0.08 0.16 0.20 0.15 0.15 0.20 0.23 0.26 0.23 0.16 0.10 0.06 0.05 0.04 0.04 0.03 0.01 0.00 0.00 0.00 0.01
0.51 0.66 0.60 0.67 0.70 0.60 0.53 0.50 0.49 0.47 0.42 0.52 0.48 0.29 0.12 0.06 0.04 0.03 0.04 0.04 0.03 0.02 0.04 0.09 0.14 0.17 0.17 0.13 0.19 0.23 0.31 0.27 0.19 0.12 0.09 0.07 0.06 0.05 0.03 0.02 0.01 0.01 0.01
0.63 0.65 0.66 0.66 0.64 0.61 0.53 0.48 0.50 0.48 0.40 0.48 0.49 0.40 0.22 0.10 0.04 0.02 0.02 0.03 0.04 0.05 0.05 0.05 0.07 0.13 0.12 0.12 0.18 0.13 0.18 0.25 0.22 0.19 0.16 0.09 0.06 0.05 0.04 0.03 0.03 0.03 0.02
0.87 0.85 0.80 0.73 0.66 0.64 0.60 0.53 0.53 0.51 0.42 0.40 0.44 0.51 0.41 0.26 0.16 0.07 0.09 0.14 0.18 0.19 0.14 0.10 0.10 0.15 0.16 0.19 0.21 0.25 0.14 0.19 0.26 0.32 0.31 0.20 0.08 0.03 0.04 0.05 0.06 0.05 0.03
1.06 0.96 0.85 0.71 0.60 0.56 0.57 0.51 0.50 0.52 0.50 0.42 0.40 0.44 0.47 0.45 0.40 0.19 0.09 0.14 0.27 0.29 0.24 0.17 0.13 0.13 0.14 0.18 0.24 0.46 0.41 0.28 0.31 0.39 0.38 0.31 0.18 0.08 0.06 0.08 0.16 0.18 0.11
0.76 0.70 0.64 0.59 0.51 0.46 0.44 0.48 0.53 0.55 0.52 0.46 0.41 0.39 0.41 0.44 0.43 0.37 0.22 0.23 0.29 0.27 0.20 0.15 0.13 0.15 0.17 0.21 0.32 0.47 0.61 0.47 0.37 0.33 0.30 0.25 0.23 0.18 0.13 0.15 0.27 0.36 0.33
0.39 0.37 0.37 0.39 0.38 0.38 0.38 0.39 0.44 0.47 0.47 0.47 0.47 0.47 0.48 0.50 0.53 0.55 0.46 0.44 0.40 0.32 0.25 0.23 0.21 0.22 0.26 0.31 0.41 0.49 0.41 0.44 0.49 0.49 0.42 0.29 0.19 0.16 0.18 0.20 0.26 0.36 0.46
0.24 0.25 0.27 0.30 0.31 0.33 0.38 0.44 0.45 0.45 0.48 0.49 0.48 0.52 0.57 0.60 0.60 0.61 0.56 0.52 0.44 0.39 0.38 0.36 0.32 0.33 0.29 0.34 0.45 0.41 0.27 0.29 0.31 0.32 0.30 0.28 0.23 0.17 0.12 0.09 0.12 0.22 0.36
0.29 0.31 0.35 0.37 0.37 0.36 0.35 0.41 0.44 0.46 0.50 0.51 0.50 0.53 0.55 0.56 0.55 0.59 0.58 0.51 0.43 0.44 0.47 0.48 0.35 0.28 0.25 0.29 0.37 0.35 0.34 0.29 0.15 0.09 0.07 0.07 0.07 0.07 0.08 0.07 0.06 0.08 0.13
0.33 0.36 0.42 0.47 0.50 0.50 0.49 0.50 0.48 0.52 0.58 0.62 0.60 0.57 0.54 0.50 0.46 0.47 0.47 0.43 0.35 0.30 0.31 0.30 0.20 0.14 0.11 0.18 0.29 0.40 0.56 0.40 0.14 0.05 0.03 0.02 0.02 0.02 0.02 0.04 0.03 0.04 0.08
0.38 0.43 0.47 0.48 0.52 0.53 0.54 0.55 0.59 0.65 0.72 0.67 0.61 0.61 0.57 0.52 0.44 0.39 0.32 0.30 0.26 0.21 0.18 0.17 0.10 0.07 0.09 0.13 0.20 0.25 0.35 0.22 0.07 0.03 0.02 0.02 0.02 0.02 0.03 0.04 0.05 0.04 0.06
0.41 0.47 0.43 0.38 0.35 0.38 0.45 0.53 0.60 0.64 0.66 0.60 0.57 0.50 0.41 0.34 0.29 0.20 0.16 0.15 0.14 0.13 0.12 0.13 0.13 0.12 0.15 0.21 0.22 0.20 0.18 0.12 0.11 0.06 0.03 0.03 0.04 0.05 0.05 0.04 0.06 0.06 0.09
0.41 0.44 0.39 0.34 0.33 0.38 0.45 0.53 0.62 0.69 0.66 0.59 0.50 0.38 0.26 0.18 0.12 0.07 0.06 0.04 0.05 0.08 0.10 0.11 0.13 0.13 0.15 0.18 0.20 0.21 0.18 0.18 0.22 0.15 0.08 0.06 0.06 0.08 0.06 0.04 0.07 0.07 0.12
0.40 0.39 0.38 0.40 0.49 0.55 0.61 0.67 0.63 0.59 0.51 0.40 0.32 0.24 0.12 0.05 0.04 0.02 0.01 0.02 0.02 0.04 0.13 0.17 0.19 0.18 0.17 0.15 0.13 0.18 0.23 0.34 0.40 0.28 0.16 0.11 0.08 0.10 0.10 0.07 0.10 0.17 0.28
0.23 0.31 0.42 0.56 0.64 0.66 0.65 0.64 0.53 0.41 0.32 0.22 0.15 0.08 0.03 0.01 0.01 0.01 0.01 0.01 0.01 0.05 0.10 0.14 0.15 0.13 0.13 0.10 0.10 0.14 0.22 0.37 0.47 0.38 0.30 0.23 0.16 0.12 0.12 0.10 0.09 0.19 0.31
0.18 0.27 0.39 0.46 0.43 0.42 0.47 0.43 0.32 0.23 0.15 0.09 0.05 0.01 0.00 0.00 0.00 0.00 0.00 0.01 0.01 0.02 0.02 0.02 0.02 0.03 0.04 0.04 0.04 0.09 0.18 0.35 0.46 0.50 0.51 0.45 0.36 0.32 0.31 0.29 0.21 0.19 0.21
0.10 0.16 0.21 0.20 0.16 0.14 0.16 0.15 0.10 0.06 0.04 0.02 0.00 0.00 0.00 0.00 0.00 0.00 0.00 0.00 0.00 0.01 0.01 0.02 0.01 0.00 0.01 0.01 0.04 0.11 0.20 0.36 0.53 0.62 0.71 0.77 0.66 0.64 0.65 0.64 0.47 0.26 0.16
0.05 0.07 0.05 0.04 0.05 0.04 0.03 0.02 0.01 0.01 0.01 0.00 0.00 0.00 0.00 0.00 0.00 0.00 0.00 0.00 0.00 0.00 0.00 0.01 0.01 0.01 0.00 0.00 0.03 0.10 0.22 0.49 0.76 0.88 0.91 1.06 0.93 0.81 0.77 0.70 0.57 0.38 0.24
0.06 0.09 0.05 0.02 0.01 0.01 0.01 0.00 0.00 0.00 0.00 0.00 0.00 0.00 0.00 0.00 0.00 0.00 0.00 0.00 0.00 0.00 0.00 0.00 0.01 0.00 0.00 0.01 0.02 0.05 0.12 0.28 0.51 0.61 0.73 1.00 1.06 1.04 0.94 0.70 0.57 0.48 0.37
0.08 0.07 0.05 0.02 0.00 0.00 0.00 0.00 0.00 0.01 0.00 0.00 0.00 0.00 0.00 0.00 0.00 0.00 0.00 0.00 0.00 0.00 0.00 0.00 0.00 0.00 0.00 0.00 0.01 0.03 0.05 0.08 0.15 0.18 0.25 0.55 0.80 0.93 1.07 0.99 0.72 0.61 0.49
0.10 0.06 0.03 0.02 0.00 0.00 0.00 0.00 0.00 0.01 0.02 0.01 0.00 0.00 0.00 0.00 0.00 0.00 0.00 0.01 0.00 0.00 0.00 0.00 0.00 0.00 0.00 0.00 0.00 0.02 0.07 0.09 0.11 0.13 0.10 0.17 0.30 0.48 0.67 0.76 0.71 0.69 0.69